Location: *
(50.8512°N, 5.6907°E)
Time: 23:33:05
(UTC+00:00)

CZ-4C R/B - Pass Details

Date: 09 April 2020
Orbit: 637 x 1365 km, 63.4° (Epoch: 27 May)

Event Time Altitude Azimuth Distance (km) Brightness Sun altitude
Rises 20:48:53 0° 314° (NW) 3,692 7.1 -20.7°
Reaches altitude 10° 20:51:20 10° 318° (NW) 2,842 6.1 -21.0°
Maximum altitude 20:58:11 67° 41° (NE) 1,262 3.0 -21.7°
Enters shadow 21:01:50 34° 113° (ESE) 1,914 3.5 -22.1°
